Location: Nitra
(0.0000°N, 18.0833°E)
Time: 14:46:55
(UTC+01:00)

ARIANE 5 R/B - Pass Details

Date: 25 September 2022
Orbit: 593 x 35064 km, 5.3° (Epoch: 26 November)

Event Time Altitude Azimuth Distance (km) Brightness Sun altitude
Rises 19:27:03 0° 265° (W) 5,458 10.0 -11.9°
Reaches altitude 10° 19:31:50 10° 266° (W) 3,099 8.1 -13.1°
Maximum altitude 19:37:23 83° 353° (N) 644 3.1 -14.5°
Enters shadow 19:39:18 25° 80° (E) 1,185 3.9 -15.0°
